Le nostre stazioni meteo in Italia

Pubblicità
Il mio iltempo24.it
Ancona, Italia (16190): Temperatura & dewpoint: 13.04.2019 17:00:00 - 19.04.2019 17:00:00 (CEST)Ancona, Italia (16190): velocità del vento: 13.04.2019 17:00:00 - 19.04.2019 17:00:00 (CEST)Ancona, Italia (16190): direzione del vento: 13.04.2019 17:00:00 - 19.04.2019 17:00:00 (CEST)Ancona, Italia (16190): reduced air pressure: 13.04.2019 17:00:00 - 19.04.2019 17:00:00 (CEST)Ancona, Italia (16190): precipitazioni: 13.04.2019 17:00:00 - 19.04.2019 17:00:00 (CEST)
Data & Tempo tt [°C] td [°C] ff [km/h] ff [kn] dd ppp [hPa] rr [mm]
19.04.2019 17:00:00 - - - - - - -
19.04.2019 16:00:00 - - - - - - -
19.04.2019 15:00:00 16,6 9,7 9 5 NE 1023,7 -
19.04.2019 14:00:00 16,4 11,1 13 7 N 1024,0 -
19.04.2019 13:00:00 16,6 11,3 5 3 NNE 1024,2 -
19.04.2019 12:00:00 15,8 11,1 15 8 NNO 1024,6 -
19.04.2019 11:00:00 14,2 9,8 11 6 ONO 1024,8 -
19.04.2019 10:00:00 13,6 8,8 11 6 O 1024,1 -
19.04.2019 09:00:00 12,4 8,0 9 5 ONO 1023,6 -
19.04.2019 08:00:00 11,6 7,1 5 3 ONO 1023,4 -
19.04.2019 07:00:00 11,3 6,4 5 3 ONO 1022,9 -
19.04.2019 06:00:00 11,4 5,9 5 3 O 1022,5 -
19.04.2019 05:00:00 11,6 5,8 8 4 O 1022,4 -
19.04.2019 04:00:00 12,0 6,0 8 4 ONO 1022,0 -
19.04.2019 03:00:00 12,5 6,5 8 4 O 1022,1 -
19.04.2019 02:00:00 12,7 7,1 11 6 ONO 1022,1 -
19.04.2019 01:00:00 12,8 8,2 5 3 O 1022,1 -
19.04.2019 00:00:00 12,8 7,8 4 2 N 1021,7 -
18.04.2019 23:00:00 12,6 7,8 8 4 NNE 1021,3 -
18.04.2019 22:00:00 13,0 8,6 9 5 NNE 1021,2 -
18.04.2019 21:00:00 13,3 4,9 8 4 N 1020,8 -
18.04.2019 20:00:00 14,1 0,9 8 4 N 1020,1 -
18.04.2019 19:00:00 15,1 -0,4 9 5 N 1019,8 -
18.04.2019 18:00:00 16,5 1,7 16 9 N 1019,4 -
18.04.2019 17:00:00 16,8 4,1 16 9 N 1019,3 -
18.04.2019 16:00:00 17,1 4,7 5 3 NE 1019,5 -
18.04.2019 15:00:00 17,3 6,4 5 3 NE 1019,6 -
18.04.2019 14:00:00 17,6 3,4 8 4 NNE 1019,5 -
18.04.2019 13:00:00 17,1 2,9 11 6 NNE 1019,5 -
18.04.2019 12:00:00 16,7 6,1 11 6 N 1019,8 -
18.04.2019 11:00:00 14,9 7,4 4 2 NNO 1019,8 -
18.04.2019 10:00:00 13,6 6,1 11 6 ONO 1019,4 -
18.04.2019 09:00:00 13,1 5,2 9 5 ONO 1019,2 -
18.04.2019 08:00:00 12,1 4,5 5 3 O 1018,9 -
18.04.2019 07:00:00 11,5 3,9 4 2 O 1018,4 -
18.04.2019 06:00:00 11,4 3,6 8 4 ONO 1017,9 -
18.04.2019 05:00:00 11,7 3,1 8 4 ONO 1017,7 -
18.04.2019 04:00:00 12,1 2,4 5 3 NO 1017,6 -
18.04.2019 03:00:00 13,0 1,5 5 3 NO 1017,5 -
18.04.2019 02:00:00 13,8 2,0 5 3 NO 1017,4 -
18.04.2019 01:00:00 13,8 1,7 5 3 ONO 1017,4 -
18.04.2019 00:00:00 14,2 1,4 5 3 NO 1017,1 -
17.04.2019 23:00:00 14,3 0,4 5 3 NO 1016,8 -
17.04.2019 22:00:00 14,2 1,0 8 4 NNO 1016,5 -
17.04.2019 21:00:00 14,3 0,8 8 4 NNO 1015,9 -
17.04.2019 20:00:00 14,4 0,2 8 4 NNO 1015,2 0,0
17.04.2019 19:00:00 15,8 1,0 9 5 ONO 1014,8 -
17.04.2019 18:00:00 16,5 1,3 8 4 NO 1014,8 -
17.04.2019 17:00:00 16,8 1,5 11 6 NO 1014,8 -
17.04.2019 16:00:00 16,4 1,6 11 6 NO 1015,2 -
17.04.2019 15:00:00 17,1 1,4 9 5 NNO 1015,5 -
17.04.2019 14:00:00 16,2 2,1 15 8 N 1015,9 -
17.04.2019 13:00:00 15,5 4,1 13 7 NO 1015,9 -
17.04.2019 12:00:00 14,9 6,1 8 4 NO 1016,1 -
17.04.2019 11:00:00 14,3 4,2 11 6 NO 1016,1 -
17.04.2019 10:00:00 13,7 4,7 9 5 ONO 1015,8 -
17.04.2019 09:00:00 12,7 4,1 8 4 ONO 1015,5 -
17.04.2019 08:00:00 11,7 3,6 8 4 ONO 1015,5 -
17.04.2019 07:00:00 11,5 1,1 8 4 OSO 1015,0 -
17.04.2019 06:00:00 11,2 1,3 11 6 OSO 1014,7 -
17.04.2019 05:00:00 10,6 1,6 5 3 SSO 1014,5 -
17.04.2019 04:00:00 11,1 1,5 5 3 SO 1014,7 -
17.04.2019 03:00:00 11,1 4,2 8 4 O 1014,8 -
17.04.2019 02:00:00 11,0 1,4 4 2 N 1015,0 -
17.04.2019 01:00:00 10,7 2,2 0 0 N 1014,9 -
17.04.2019 00:00:00 11,2 6,1 0 0 N 1015,1 -
16.04.2019 23:00:00 11,4 7,3 0 0 N 1015,2 -
16.04.2019 22:00:00 11,9 6,1 0 0 N 1015,2 -
16.04.2019 21:00:00 11,9 6,3 0 0 N 1015,1 -
16.04.2019 20:00:00 12,4 3,8 0 0 N 1014,5 -
16.04.2019 19:00:00 13,7 4,7 0 0 N 1014,4 -
16.04.2019 18:00:00 14,2 6,7 5 3 NNE 1014,1 -
16.04.2019 17:00:00 14,9 4,5 5 3 NNE 1014,0 -
16.04.2019 16:00:00 15,0 7,5 9 5 NNE 1014,0 -
16.04.2019 15:00:00 15,2 9,7 15 8 NNE 1014,5 -
16.04.2019 14:00:00 14,7 9,7 8 4 N 1014,8 -
16.04.2019 13:00:00 14,3 8,6 18 10 N 1015,2 -
16.04.2019 12:00:00 13,6 7,7 9 5 NO 1015,5 -
16.04.2019 11:00:00 13,0 6,5 15 8 NO 1015,3 -
16.04.2019 10:00:00 12,3 5,4 9 5 ONO 1015,1 -
16.04.2019 09:00:00 11,5 5,1 16 9 O 1015,1 -
16.04.2019 08:00:00 10,3 3,5 8 4 O 1014,9 -
16.04.2019 07:00:00 9,3 2,3 8 4 OSO 1014,4 -
16.04.2019 06:00:00 9,8 2,3 9 5 O 1014,2 -
16.04.2019 05:00:00 10,4 2,4 15 8 ONO 1014,3 -
16.04.2019 04:00:00 10,3 2,3 11 6 O 1014,3 -
16.04.2019 03:00:00 10,7 2,7 13 7 O 1014,3 -
16.04.2019 02:00:00 10,9 2,6 9 5 O 1014,5 -
16.04.2019 01:00:00 11,2 1,9 13 7 O 1014,7 -
16.04.2019 00:00:00 11,3 2,2 11 6 O 1014,7 -
15.04.2019 23:00:00 11,3 3,3 9 5 O 1014,9 -
15.04.2019 22:00:00 11,6 6,0 11 6 ONO 1014,8 -
15.04.2019 21:00:00 11,7 5,7 13 7 NNO 1014,4 -
15.04.2019 20:00:00 11,9 6,3 21 11 NO 1013,7 -
15.04.2019 19:00:00 12,7 6,0 13 7 ONO 1013,4 -
15.04.2019 18:00:00 13,4 6,9 9 5 NO 1013,4 -
15.04.2019 17:00:00 13,7 7,2 15 8 NO 1013,3 -
15.04.2019 16:00:00 13,8 7,0 13 7 NNO 1013,1 -
15.04.2019 15:00:00 14,1 7,8 21 11 N 1013,4 -
15.04.2019 14:00:00 14,4 8,7 8 4 N 1013,5 -
15.04.2019 13:00:00 13,6 7,7 15 8 N 1013,3 -
15.04.2019 12:00:00 13,5 8,1 28 15 N 1013,1 -
15.04.2019 11:00:00 13,1 8,3 9 5 N 1013,1 -
15.04.2019 10:00:00 11,9 8,0 8 4 N 1012,5 -
15.04.2019 09:00:00 11,6 6,7 2 1 N 1011,9 -
15.04.2019 08:00:00 11,2 6,5 13 7 N 1011,1 -
15.04.2019 07:00:00 10,9 6,4 16 9 NNE 1010,3 -
15.04.2019 06:00:00 11,2 6,7 4 2 NNE 1009,9 -
15.04.2019 05:00:00 11,1 6,8 0 0 N 1009,5 -
15.04.2019 04:00:00 10,9 5,6 0 0 N 1009,5 -
15.04.2019 03:00:00 11,3 5,5 0 0 N 1009,1 -
15.04.2019 02:00:00 11,3 7,4 0 0 N 1009,0 -
15.04.2019 01:00:00 11,0 6,7 0 0 N 1008,7 -
15.04.2019 00:00:00 10,9 5,4 0 0 N 1008,6 -
14.04.2019 23:00:00 11,6 7,3 0 0 N 1008,3 -
14.04.2019 22:00:00 11,3 5,8 0 0 N 1008,3 -
14.04.2019 21:00:00 11,0 5,3 0 0 N 1007,6 -
14.04.2019 20:00:00 11,2 5,0 0 0 N 1006,8 -
14.04.2019 19:00:00 11,7 5,9 0 0 N 1006,4 -
14.04.2019 18:00:00 12,0 4,6 5 3 E 1006,4 -
14.04.2019 17:00:00 12,9 5,7 18 10 E 1006,2 -
14.04.2019 16:00:00 12,2 6,8 16 9 E 1006,2 -
14.04.2019 15:00:00 12,8 5,9 18 10 E 1006,3 -
14.04.2019 14:00:00 13,1 7,3 2 1 E 1006,5 -
14.04.2019 13:00:00 13,0 6,5 4 2 E 1006,6 -
14.04.2019 12:00:00 12,9 6,4 5 3 E 1006,8 -
14.04.2019 11:00:00 13,1 6,4 0 0 N 1006,9 -
14.04.2019 10:00:00 11,1 4,7 0 0 N 1007,2 -
14.04.2019 09:00:00 9,8 6,1 0 0 N 1006,9 -
14.04.2019 08:00:00 9,4 5,7 0 0 N 1006,9 -
14.04.2019 07:00:00 9,0 4,8 0 0 N 1006,6 -
14.04.2019 06:00:00 9,6 4,9 0 0 N 1006,5 -
14.04.2019 05:00:00 9,8 4,3 0 0 N 1006,8 -
14.04.2019 04:00:00 9,8 4,7 0 0 N 1006,9 -
14.04.2019 03:00:00 9,9 4,6 0 0 N 1007,3 -
14.04.2019 02:00:00 9,1 4,7 0 0 N 1008,2 -
14.04.2019 01:00:00 9,5 4,6 0 0 N 1008,4 -
14.04.2019 00:00:00 9,5 4,2 0 0 N 1008,8 -
13.04.2019 23:00:00 9,9 4,4 0 0 N 1008,9 -
13.04.2019 22:00:00 10,3 3,9 0 0 N 1009,0 -
13.04.2019 21:00:00 9,9 4,2 0 0 N 1009,2 -
13.04.2019 20:00:00 10,1 4,0 0 0 N 1008,4 -
13.04.2019 19:00:00 10,5 3,0 0 0 N 1008,3 -
13.04.2019 18:00:00 11,9 3,1 2 1 N 1008,3 -
13.04.2019 17:00:00 12,3 3,9 0 0 N 1008,5 -

tt = Temperatura
td = dewpoint
ff = velocità del vento
dd = direzione del vento
ppp = reduced air pressure
rr = precipitazioni

Stazioni seguenti

WeatherPro
AMSI
MeteoEarth